Fort Lauderdale, FL

10:48 AM EST on December 14, 2019 (GMT -0500)
Fort Lauderdale Executive

Weather History for KFXE - October, 2019

Change the Weather History Date:

Sunday, October 20, 2019

  Actual Average Record
Temperature  
Mean Temperature 86 °F -  
Max Temperature 91 °F 86 °F 94 °F (1980)
Min Temperature 80 °F 69 °F 57 °F (1977)
Cooling Degree Days 20    
Growing Degree Days 36 (Base 50)    
Moisture  
Dew Point 76 °F    
Average Humidity 78    
Maximum Humidity 88    
Minimum Humidity 59    
Precipitation  
Precipitation 0.02 in - - ()
Sea Level Pressure  
Sea Level Pressure 29.93 in    
Wind  
Wind Speed 7 mph ()    
Max Wind Speed 14 mph    
Max Gust Speed 21 mph    
Visibility 10.0 miles    
Events      
Averages and records for this station are not official NWS values.
T = Trace of Precipitation, MM = Missing Value Source: Averaged Metar Reports

Daily Weather History Graph

Daily Weather History Graph

Search for Another Location

Airport or City:

Astronomy

Oct. 20, 2019 Rise Set
Actual Time 7:22 AM EDT 6:48 PM EDT
Civil Twilight 6:58 AM EDT 7:11 PM EDT
Nautical Twilight 6:31 AM EDT 7:38 PM EDT
Astronomical Twilight 6:05 AM EDT 8:05 PM EDT
Moon No Moon Rise 1:26 PM EDT (10/20)
Length of Visible Light 12h 12m
Length of Day
11h 26m
Waning Gibbous, 59% of the Moon is Illuminated
Oct 20
Waning Gibbous
Oct 21
Last Quarter
Oct 27
New
Nov 4
First Quarter
Nov 12
Full

Hourly Weather History & Observations

Time (EDT) Temp. Heat Index Dew Point Humidity Pressure Visibility Wind Dir Wind Speed Gust Speed Precip Events Conditions
12:53 AM 82.0 °F 90.2 °F 77.0 °F 85% 29.90 in 10.0 mi SSE 9.2 mph - N/A   Mostly Cloudy
1:53 AM 81.0 °F 87.9 °F 77.0 °F 88% 29.89 in 10.0 mi South 6.9 mph - N/A   Clear
2:53 AM 81.0 °F 87.3 °F 75.9 °F 85% 29.88 in 10.0 mi South 6.9 mph - N/A   Clear
3:53 AM 81.0 °F 87.9 °F 77.0 °F 88% 29.87 in 10.0 mi South 6.9 mph - N/A   Clear
4:53 AM 81.0 °F 87.9 °F 77.0 °F 88% 29.88 in 10.0 mi South 8.1 mph - N/A   Clear
5:53 AM 81.0 °F 87.9 °F 77.0 °F 88% 29.90 in 10.0 mi South 6.9 mph - N/A   Partly Cloudy
6:53 AM 81.0 °F 87.9 °F 77.0 °F 88% 29.91 in 10.0 mi SSW 5.8 mph - N/A   Scattered Clouds
7:53 AM 81.0 °F 87.9 °F 77.0 °F 88% 29.93 in 10.0 mi South 5.8 mph - N/A   Partly Cloudy
8:53 AM 82.9 °F 92.8 °F 78.1 °F 85% 29.95 in 10.0 mi SSW 11.5 mph - N/A   Clear
9:53 AM 86.0 °F 96.9 °F 77.0 °F 74% 29.97 in 10.0 mi SW 13.8 mph 20.7 mph N/A   Scattered Clouds
10:53 AM 88.0 °F 100.2 °F 77.0 °F 70% 29.96 in 10.0 mi SW 9.2 mph - N/A   Scattered Clouds
11:53 AM 89.1 °F 100.2 °F 75.9 °F 65% 29.97 in 10.0 mi SSW 9.2 mph - N/A   Scattered Clouds
12:53 PM 86.0 °F 96.0 °F 75.9 °F 72% 29.96 in 10.0 mi WSW 9.2 mph - 0.02 in   Mostly Cloudy
1:53 PM 89.1 °F 101.4 °F 77.0 °F 67% 29.94 in 10.0 mi West 10.4 mph - N/A   Scattered Clouds
2:53 PM 90.0 °F 99.0 °F 73.9 °F 59% 29.92 in 10.0 mi West 10.4 mph - N/A   Scattered Clouds
3:53 PM 90.0 °F 100.2 °F 75.0 °F 61% 29.92 in 10.0 mi West 11.5 mph - N/A   Scattered Clouds
4:53 PM 86.0 °F 95.1 °F 75.0 °F 70% 29.92 in 10.0 mi West 12.7 mph - N/A   Partly Cloudy
5:53 PM 86.0 °F 95.1 °F 75.0 °F 70% 29.92 in 10.0 mi West 6.9 mph - N/A   Clear
7:53 PM 82.9 °F 90.2 °F 75.0 °F 77% 29.95 in 10.0 mi WSW 3.5 mph - N/A   Partly Cloudy
8:53 PM 84.0 °F 91.9 °F 75.0 °F 74% 29.97 in 10.0 mi SSE 3.5 mph - N/A   Partly Cloudy
9:53 PM 82.0 °F 88.6 °F 75.0 °F 79% 29.98 in 10.0 mi SSW 4.6 mph - N/A   Clear
10:53 PM 81.0 °F 86.7 °F 75.0 °F 82% 29.99 in 10.0 mi SW 4.6 mph - N/A   Clear
11:53 PM 80.1 °F 85.1 °F 75.0 °F 85% 29.99 in 10.0 mi South 3.5 mph - N/A   Clear